Location: Asarope
(8.2500°N, 4.4833°E)
Time: 13:58:40
(UTC+00:00)

NOSS 3-3 (A) - Pass Details

Date: 07 June 2020
Orbit: 831 x 1382 km, 63.4° (Epoch: 06 July)

Event Time Altitude Azimuth Distance (km) Brightness Sun altitude
Exits shadow 03:16:15 40° 333° (NNW) 1,229 4.5 -28.9°
Drops below altitude 10° 03:20:23 10° 8° (N) 2,511 6.6 -28.0°
Sets 03:23:02 0° 14° (NNE) 3,503 7.5 -27.5°
